This is the latest recevied weather packets stored in our database for station/object W4KAB. If no packets are shown the sender has not sent any weather packets the latest 10 day(s).
| Time | Temp. | Humidity | Pressure | Rain* | Wind** | Luminosity | Snow |
|---|---|---|---|---|---|---|---|
| 1777912520 | 22.22° C | 43% | 1017.7 hPa | 0 mm | - | 329 W/m² | - |
| 1777912216 | 22.22° C | 46% | 1017.4 hPa | 0 mm | - | 680 W/m² | - |
| 1777911912 | 22.22° C | 44% | 1017.7 hPa | 0 mm | - | 456 W/m² | - |
| 1777911608 | 21.67° C | 44% | 1017.9 hPa | 0 mm | - | 756 W/m² | - |
| 1777911304 | 22.78° C | 44% | 1017.9 hPa | 0 mm | - | 737 W/m² | - |
| 1777911003 | 22.22° C | 43% | 1017.9 hPa | 0 mm | - | 730 W/m² | - |
| 1777910700 | 21.67° C | 42% | 1017.8 hPa | 0 mm | - | 733 W/m² | - |
| 1777910396 | 21.67° C | 43% | 1018.1 hPa | 0 mm | - | 691 W/m² | - |
| 1777910093 | 21.11° C | 44% | 1018 hPa | 0 mm | - | 730 W/m² | - |
| 1777909791 | 21.11° C | 45% | 1018.1 hPa | 0 mm | - | 756 W/m² | - |
| 1777909487 | 20° C | 46% | 1018.2 hPa | 0 mm | - | 735 W/m² | - |
| 1777909185 | 21.11° C | 42% | 1018.4 hPa | 0 mm | - | 705 W/m² | - |
| 1777908883 | 20.56° C | 45% | 1018.6 hPa | 0 mm | - | 751 W/m² | - |
| 1777908580 | 20° C | 44% | 1019 hPa | 0 mm | - | 698 W/m² | - |
| 1777908277 | 20.56° C | 44% | 1018.8 hPa | 0 mm | - | 679 W/m² | - |
| 1777907973 | 19.44° C | 45% | 1018.9 hPa | 0 mm | - | 657 W/m² | - |
| 1777907668 | 19.44° C | 44% | 1019.1 hPa | 0 mm | - | 542 W/m² | - |
| 1777907364 | 19.44° C | 44% | 1019.1 hPa | 0 mm | - | 389 W/m² | - |
| 1777907060 | 19.44° C | 44% | 1019.1 hPa | 0 mm | - | 665 W/m² | - |
| 1777906758 | 18.89° C | 44% | 1019 hPa | 0 mm | - | 101 W/m² | - |
| 1777906455 | 18.33° C | 44% | 1018.9 hPa | 0 mm | - | 64 W/m² | - |
| 1777906152 | 18.33° C | 45% | 1019 hPa | 0 mm | - | 65 W/m² | - |
| 1777905848 | 18.33° C | 47% | 1018.7 hPa | 0 mm | - | 50 W/m² | - |
| 1777905545 | 17.78° C | 49% | 1019 hPa | 0 mm | - | 43 W/m² | - |
| 1777905242 | 17.78° C | 47% | 1019.1 hPa | 0 mm | - | 41 W/m² | - |
* Rain latest hour (hover to see other rain measurements)
** Current wind speed in m/s (hover to see current wind gust speed)